Location: LDNL
(36.4545°S, 141.6685°E)
Time: 03:26:40
(UTC+11:00)

A-11 Canister half - Pass Details

Date: 11 August 2022
Orbit: 1524 x 1684 km, 47.3° (Epoch: 05 October)

Event Time Altitude Azimuth Distance (km) Brightness Sun altitude
Rises 17:27:49 0° 312° (NW) 4,708 13.2 4.6°
Reaches altitude 10° 17:30:53 10° 313° (NW) 3,715 12.6 4.0°
Maximum altitude 17:40:13 79° 38° (NE) 1,559 9.2 2.3°
Drops below altitude 10° 17:49:34 10° 122° (ESE) 3,717 10.4 0.5°
Sets 17:52:38 0° 123° (ESE) 4,711 10.9 -0.1°
